IZ1CYF-13 Weather Reports


time (UTC)temp
C
wind
direction
speed
KPH
gust
KPH
rain 1hr
cm
rain 24hr
cm
rain mn
cm
humidity
%
barometer
mb
20260508010951 20 0.0 0.0 0.00 0.00 0.00 49 1015.1
20260508004934 18 0.0 0.0 0.00 0.00 0.00 51 1015.3
20260508002951 21 0.0 0.0 0.00 0.00 0.00 46 1015.0
20260507233855 18 0.0 0.0 0.00 0.00 0.00 53 1015.7
20260507225905 17 0.0 0.0 0.00 0.00 0.00 57 1016.2
20260507204841 18 0.0 0.0 0.00 0.00 0.00 57 1015.3
20260507203841 20 0.0 0.0 0.00 0.00 0.00 53 1015.0
20260507202845 18 0.0 0.0 0.00 0.00 0.00 58 1015.2
20260507201845 18 0.0 0.0 0.00 0.00 0.00 60 1015.1
20260507200857 18 0.0 0.0 0.00 0.00 0.00 61 1015.1
20260507194846 18 0.0 0.0 0.00 0.00 0.00 58 1014.7
20260507194015 18 0.0 0.0 0.00 0.00 0.00 57 1014.5
20260507184841 18 0.0 0.0 0.00 0.00 0.00 58 1014.2
20260507183845 17 0.0 0.0 0.00 0.00 0.00 62 1014.4
20260507182847 18 0.0 0.0 0.00 0.00 0.00 53 1013.8
20260507181841 18 0.0 0.0 0.00 0.00 0.00 52 1013.6
20260507181018 22 0.0 0.0 0.00 0.00 0.00 45 1012.9
20260507174845 20 0.0 0.0 0.00 0.00 0.00 49 1013.0
20260507173845 20 0.0 0.0 0.00 0.00 0.00 51 1013.2
20260507172842 20 0.0 0.0 0.00 0.00 0.00 50 1013.0
20260507171858 20 0.0 0.0 0.00 0.00 0.00 47 1012.7
20260507170842 20 0.0 0.0 0.00 0.00 0.00 49 1013.0
20260507165845 21 0.0 0.0 0.00 0.00 0.00 47 1012.9
20260507164846 21 0.0 0.0 0.00 0.00 0.00 46 1012.8
20260507163913 19 0.0 0.0 0.00 0.00 0.00 49 1013.0
20260507162842 20 0.0 0.0 0.00 0.00 0.00 47 1012.9
20260507161842 22 0.0 0.0 0.00 0.00 0.00 40 1012.4
20260507160846 18 0.0 0.0 0.00 0.00 0.00 47 1013.1
20260507155842 20 0.0 0.0 0.00 0.00 0.00 43 1012.7
20260507154914 21 0.0 0.0 0.00 0.00 0.00 40 1012.3
20260507153842 21 0.0 0.0 0.00 0.00 0.00 41 1012.6
20260507152843 21 0.0 0.0 0.00 0.00 0.00 40 1012.4
20260507151943 22 0.0 0.0 0.00 0.00 0.00 39 1012.2
20260507145842 20 0.0 0.0 0.00 0.00 0.00 44 1013.0
20260507144845 19 0.0 0.0 0.00 0.00 0.00 46 1013.2
20260507143843 20 0.0 0.0 0.00 0.00 0.00 44 1012.9
20260507142843 20 0.0 0.0 0.00 0.00 0.00 44 1013.2
20260507141842 21 0.0 0.0 0.00 0.00 0.00 42 1012.8
20260507140843 21 0.0 0.0 0.00 0.00 0.00 42 1012.8
20260507135843 21 0.0 0.0 0.00 0.00 0.00 42 1013.0
20260507134843 19 0.0 0.0 0.00 0.00 0.00 46 1013.5
20260507133857 20 0.0 0.0 0.00 0.00 0.00 43 1013.5
20260507132858 21 0.0 0.0 0.00 0.00 0.00 40 1013.2
20260507131843 20 0.0 0.0 0.00 0.00 0.00 42 1013.5
20260507130843 21 0.0 0.0 0.00 0.00 0.00 41 1013.4
20260507125843 18 0.0 0.0 0.00 0.00 0.00 49 1014.1
20260507124842 19 0.0 0.0 0.00 0.00 0.00 47 1013.8
20260507123843 20 0.0 0.0 0.00 0.00 0.00 44 1013.9
20260507122842 17 0.0 0.0 0.00 0.00 0.00 48 1014.4
20260507121842 18 0.0 0.0 0.00 0.00 0.00 47 1014.2
20260507120857 20 0.0 0.0 0.00 0.00 0.00 43 1013.9
20260507115842 19 0.0 0.0 0.00 0.00 0.00 45 1014.1
20260507114912 20 0.0 0.0 0.00 0.00 0.00 44 1013.9
20260507113843 18 0.0 0.0 0.00 0.00 0.00 48 1014.5
20260507112843 21 0.0 0.0 0.00 0.00 0.00 44 1014.0
20260507111842 21 0.0 0.0 0.00 0.00 0.00 43 1014.1
20260507110842 16 0.0 0.0 0.00 0.00 0.00 54 1015.3
20260507105843 17 0.0 0.0 0.00 0.00 0.00 52 1015.3
20260507104842 17 0.0 0.0 0.00 0.00 0.00 52 1015.2
20260507103842 17 0.0 0.0 0.00 0.00 0.00 54 1015.6
20260507102915 17 0.0 0.0 0.00 0.00 0.00 52 1015.5
20260507101842 18 0.0 0.0 0.00 0.00 0.00 49 1015.2
20260507100849 18 0.0 0.0 0.00 0.00 0.00 49 1015.1
20260507095842 17 0.0 0.0 0.00 0.00 0.00 53 1015.4
20260507094843 19 0.0 0.0 0.00 0.00 0.00 49 1014.9
20260507093842 19 0.0 0.0 0.00 0.00 0.00 49 1014.9
20260507092842 17 0.0 0.0 0.00 0.00 0.00 53 1015.2
20260507091843 19 0.0 0.0 0.00 0.00 0.00 50 1014.7
20260507090843 18 0.0 0.0 0.00 0.00 0.00 52 1014.9
20260507085858 18 0.0 0.0 0.00 0.00 0.00 53 1014.9
20260507084843 19 0.0 0.0 0.00 0.00 0.00 49 1014.8
20260507083843 20 0.0 0.0 0.00 0.00 0.00 47 1014.3
20260507082844 19 0.0 0.0 0.00 0.00 0.00 49 1014.4
20260507081847 18 0.0 0.0 0.00 0.00 0.00 52 1014.8
20260507080913 19 0.0 0.0 0.00 0.00 0.00 48 1014.5
20260507073842 18 0.0 0.0 0.00 0.00 0.00 47 1014.5
20260507072844 18 0.0 0.0 0.00 0.00 0.00 47 1014.5
20260507071843 18 0.0 0.0 0.00 0.00 0.00 47 1014.4
20260507070843 18 0.0 0.0 0.00 0.00 0.00 48 1014.6
20260507065905 19 0.0 0.0 0.00 0.00 0.00 46 1014.4
20260507064930 19 0.0 0.0 0.00 0.00 0.00 45 1014.1
20260507062843 19 0.0 0.0 0.00 0.00 0.00 47 1014.2
20260507061847 19 0.0 0.0 0.00 0.00 0.00 44 1014.1
20260507060847 20 0.0 0.0 0.00 0.00 0.00 43 1013.9
20260507055847 19 0.0 0.0 0.00 0.00 0.00 46 1013.9
20260507054843 20 0.0 0.0 0.00 0.00 0.00 42 1013.6
20260507053858 18 0.0 0.0 0.00 0.00 0.00 45 1013.8
20260507052843 16 0.0 0.0 0.00 0.00 0.00 48 1014.2